SCP
0 0 0 -0 -0 -0 -0 -0 -0 -0 -0 -0 -0 -0 -0 -0 -0 -0 -0 -0 -0 -0 -0 -0 -0 -0 -0 -0 -0 -0 -0 -0 -0 0 0 0 0 0 0 0 -0 0 0
-0 -0 -0 -0 -0 -0 -0 -0 -0 -0 -0 -0 -0 -0 -0 -0 -0 -0 -0 -0 -0 -0 -0 -0 -0 -0 -0 -0 -0 -0 -0 0 0 0 0 0 0 0 0 0 -0 -0 0
-0 0 0 0 -0 -0 -0 0 -0 -0 -0 -0 -0 -0 -0 -0 -0 -0 -0 -0 0 -0 -0 -0 -0 0 -0 -0 -0 -0 -0 0 0 0 0 -0 -0 0 0 -0 -0 0 0
-0 -0 -0 0 -0 0 0 0 -0 -0 -0 -0 -0 -0 -0 -0 -0 -0 -0 -0 -0 -0 -0 -0 -0 -0 -0 -0 -0 -0 0 0 0 0 -0 -0 -0 0 0 -0 0 0 0
0 0 -0 -0 -0 -0 0 0 0 0 -0 -0 -0 -0 -0 -0 -0 -0 -0 -0 -0 -0 -0 -0 -0 -0 -0 -0 -0 -0 -0 0 0 -0 -0 -0 -0 -0 -0 0 0 0 0
-0 0 -0 -0 -0 -0 -0 -0 -0 -0 0 0 -0 -0 -0 -0 -0 -0 -0 -0 -0 -0 -0 -0 -0 -0 -0 -0 -0 -0 -0 -0 -0 0 0 -0 -0 0 0 0 0 0 0
-0 0 -0 -0 -0 -0 -0 -0 -0 -0 -0 0 -0 -0 -0 -0 -0 -0 -0 -0 -0 -0 -0 -0 -0 -0 -0 -0 -0 0 0 0 0 0 0 0 0 0 0 0 0 0 0
-0 -0 -0 -0 -0 -0 -0 -0 -0 0 -0 0 0 -0 -0 -0 -0 -0 0 0 -0 -0 -0 -0 -0 -0 -0 0 0 0 0 0 0 0 0 0 0 0 0 0 0 0 0
0 0 -0 0 0 0 -0 -0 -0 -0 -0 0 -0 -0 -0 -0 -0 -0 0 0 0 0 0 0 0 0 0 0 0 0 0 0 0 0 0 0 0 0 0 0 0 0 0
0 0 0 -0 -0 0 0 0 0 0 0 0 0 0 -0 -0 -0 -0 0 0 0 0 0 0 0 0 0 0 0 0 0 0 0 0 0 0 0 0 0 0 0 0 0
0 0 0 -0 -0 -0 0 0 0 0 0 0 0 0 0 0 0 -0 0 0 0 0 0 0 0 0 0 0 0 0 0 0 0 0 0 0 0 0 0 0 0 0 0
-0 -0 -0 -0 -0 -0 -0 0 0 0 0 0 0 0 0 0 0 0 0 0 0 0 0 0 0 0 0 0 0 0 0 0 0 0 0 0 0 0 0 0 0 0 0
-0 -0 -0 -0 -0 -0 -0 -0 -0 0 0 0 0 0 0 0 0 0 0 0 0 0 0 0 0 0 0 0 0 0 0 0 0 0 0 0 0 0 0 0 0 0 0
-0 -0 -0 -0 -0 -0 -0 -0 -0 -0 0 0 0 0 0 0 0 0 0 0 0 0 0 0 0 0 0 0 0 0 0 0 0 0 0 0 0 0 0 0 0 0 0
-0 -0 -0 -0 -0 -0 -0 0 -0 -0 0 0 0 0 0 0 0 0 0 0 0 0 0 0 0 0 0 0 0 0 0 0 0 0 0 0 0 0 0 0 0 0 0
-0 -0 -0 -0 -0 -0 -0 0 0 0 0 0 0 0 0 0 0 0 0 0 0 0 0 0 0 0 0 0 0 0 0 0 0 0 0 0 0 0 0 0 0 0 0
-0 -0 -0 -0 -0 -0 -0 0 0 0 0 0 0 0 0 0 0 0 0 0 0 0 0 0 0 0 0 0 0 0 0 0 0 0 0 0 0 0 0 0 0 0 0
-0 0 0 0 0 -0 0 0 0 0 0 0 0 0 0 0 0 0 0 0 0 0 0 0 0 0 0 0 0 0 0 0 0 0 0 0 0 0 0 0 0 0 0
0 0 0 0 0 0 0 0 0 0 0 0 0 0 0 0 0 0 0 0 0 0 0 0 0 0 0 0 0 0 0 0 0 0 0 0 0 0 0 0 0 0 0
0 0 0 0 0 0 0 0 0 0 0 0 0 0 0 0 0 0 0 0 0 0 0 0 0 0 0 0 0 0 0 0 0 0 0 0 0 0 0 0 0 0 0
0 0 0 0 0 0 0 0 0 0 0 0 0 0 0 0 0 0 0 0 0 0 0 0 0 0 0 0 0 0 0 0 0 0 0 0 0 0 0 0 0 0 0
0 0 0 0 0 0 0 0 0 0 0 0 0 0 0 0 0 0 0 0 0 0 0 0 0 0 0 0 0 0 0 0 0 0 0 0 0 0 0 0 0 0 0
0 0 0 0 0 0 0 0 0 0 0 0 0 0 0 0 0 0 0 0 0 0 0 0 0 0 0 0 0 0 0 0 0 0 0 0 0 0 0 0 0 0 0
0 0 0 0 0 0 0 0 0 0 0 0 0 0 0 0 0 0 0 0 0 0 0 0 0 0 0 0 0 0 0 0 0 0 0 0 0 0 0 0 0 0 0
0 0 0 0 0 0 0 0 0 0 0 0 0 0 0 0 0 0 0 0 0 0 0 0 0 0 0 0 0 0 0 0 0 0 0 0 0 0 0 0 0 0 0
0 0 0 0 0 0 0 0 0 0 0 0 0 0 0 0 0 0 0 0 0 0 0 0 0 0 0 0 0 0 0 0 0 0 0 0 0 0 0 0 0 0 0
Wind_Speed_500mb
27 25 26 28 27 25 23 19 15 16 18 24 27 26 23 24 23 17 14 15 19 31 33 33 33 31 29 31 30 28 24 25 28 26 30 30 31 28 28 25 24 29 31
25 27 25 27 26 26 22 15 13 14 18 20 22 22 20 21 23 20 13 14 25 31 34 32 32 26 27 29 28 27 26 30 31 35 36 33 32 25 25 23 25 24 28
24 27 23 25 28 24 16 12 10 13 15 19 18 19 21 23 26 24 24 15 29 28 28 26 25 26 21 25 25 28 31 35 37 33 32 34 28 21 22 23 28 30 31
25 25 21 25 30 22 14 9 10 13 15 22 17 21 23 24 27 27 26 24 25 27 25 23 22 25 24 23 23 25 29 32 31 28 28 25 23 16 17 20 26 25 24
28 26 22 23 24 18 15 12 13 15 19 26 16 21 24 22 24 24 25 24 27 25 21 21 20 21 22 21 21 22 25 25 23 21 20 20 19 15 17 19 19 17 17
26 25 24 23 18 16 13 11 10 14 21 25 20 13 20 19 21 23 23 22 23 24 21 17 16 16 19 19 18 18 19 19 17 18 18 20 19 20 15 17 17 10 15
23 23 23 23 21 16 11 10 11 16 19 18 22 18 17 19 19 19 18 19 18 18 17 14 14 12 14 14 13 12 14 15 14 12 14 16 18 15 12 12 13 7 10
19 20 22 24 22 19 14 9 7 13 19 17 17 20 16 17 19 19 17 16 14 14 14 13 12 9 9 10 8 6 7 8 9 9 11 12 13 12 10 9 6 2 8
19 21 20 22 24 24 18 13 9 8 17 24 19 22 19 12 16 19 17 15 14 12 12 11 10 7 5 4 4 2 3 4 4 6 7 8 8 8 8 8 5 2 2
19 19 20 23 24 26 23 18 13 10 14 21 23 20 24 20 14 15 18 16 14 14 13 11 9 8 5 4 3 4 4 5 6 7 7 6 7 7 7 7 3 5 2
26 21 21 22 26 27 26 23 21 18 16 18 22 22 26 20 18 18 20 18 16 16 16 15 14 12 11 10 9 9 9 9 8 9 10 9 9 8 7 5 2 6 7
25 25 23 22 23 28 29 28 26 24 21 20 21 23 23 21 20 21 19 19 19 20 20 20 19 18 15 15 15 15 15 14 13 13 14 14 13 11 10 8 4 7 12
15 21 23 24 24 27 30 31 32 30 29 26 24 24 24 24 23 23 23 22 21 22 23 23 22 21 21 20 20 20 21 21 19 18 17 18 17 15 13 12 9 9 13
20 19 21 24 27 28 30 34 35 37 35 33 30 29 30 30 29 28 27 25 26 25 26 26 26 27 26 26 26 26 26 26 25 23 22 21 21 20 17 17 15 13 13
25 25 27 28 29 30 33 34 38 41 41 38 38 36 35 34 33 33 33 32 30 31 29 30 31 31 31 32 32 33 32 31 30 28 27 25 25 24 21 21 20 18 19
23 24 27 32 33 34 36 37 38 40 41 44 44 43 42 39 37 37 36 37 36 34 33 34 35 36 37 39 38 38 36 36 34 33 32 29 29 28 26 24 24 23 25
29 28 31 34 35 38 40 41 44 42 41 42 44 46 48 49 45 42 40 42 41 39 40 41 42 42 43 43 44 43 43 41 41 38 37 35 33 32 30 28 28 27 26
41 37 35 36 39 41 42 43 47 49 48 45 44 45 47 49 51 50 48 46 43 45 46 48 45 47 48 47 47 46 47 48 47 46 44 42 39 38 36 34 32 30 31
42 43 40 40 41 42 43 45 47 49 53 51 51 50 50 51 50 51 52 51 46 49 51 51 52 52 52 52 53 53 52 55 53 53 52 50 45 43 42 41 39 36 34
29 32 33 33 31 33 43 48 49 50 52 54 56 56 55 55 56 55 55 54 52 54 55 54 57 55 58 56 55 60 60 60 60 61 60 57 55 51 47 45 46 45 40
47 41 36 38 34 35 36 42 49 52 50 53 55 57 58 59 60 61 62 61 61 60 59 56 57 62 63 59 58 66 68 65 66 64 61 60 59 56 55 50 52 50 48
54 51 46 42 44 42 46 49 51 54 54 53 54 55 56 61 64 65 66 67 68 67 65 65 63 66 68 66 61 60 61 63 58 48 48 54 57 59 61 59 56 52 53
52 51 52 50 46 50 56 59 61 62 61 59 60 56 56 57 58 61 64 67 71 73 72 70 70 69 71 73 69 56 27 25 36 35 28 31 31 38 49 57 59 58 57
44 41 41 47 56 60 56 58 63 66 66 61 59 57 57 57 58 58 59 63 67 73 76 75 75 76 74 75 79 78 77 75 49 47 41 35 40 40 43 46 50 55 61
42 47 50 48 48 49 54 55 53 57 60 57 63 65 63 61 61 60 58 59 61 64 66 72 76 80 83 82 83 83 83 80 80 85 74 76 78 72 63 60 58 56 62
45 46 46 47 46 44 47 47 50 52 54 57 58 61 60 59 57 58 57 59 59 62 63 65 69 75 76 83 85 87 87 74 68 75 80 91 91 90 81 72 68 66 64
Wind_Direction_500mb
160 154 154 154 158 147 142 133 121 127 142 148 150 154 150 142 139 143 135 113 131 111 109 102 94 93 95 90 86 89 96 107 107 103 99 92 81 82 79 77 72 75 73
162 159 158 162 158 150 148 142 134 136 148 150 155 164 168 165 157 155 152 133 113 115 108 105 98 85 93 88 83 86 82 84 99 97 92 86 77 74 77 69 66 69 75
163 162 160 162 159 152 153 156 158 156 157 147 159 155 161 149 155 154 163 155 122 120 117 109 98 96 95 84 81 81 81 81 81 81 85 77 75 70 64 61 69 76 84
162 160 159 160 161 158 163 175 184 174 151 134 144 153 138 139 137 142 141 139 126 125 123 108 90 88 104 80 85 89 84 83 85 83 77 82 73 62 58 61 82 99 86
164 168 165 165 170 173 170 177 186 172 148 146 160 144 147 143 142 143 141 134 133 133 133 112 97 92 90 81 84 90 90 86 85 85 82 72 71 64 61 59 89 97 65
170 173 171 174 181 187 185 179 177 169 161 162 169 166 147 152 148 148 145 143 137 138 137 125 106 94 91 85 83 87 84 82 81 81 73 63 60 63 51 68 85 82 55
176 181 181 186 190 196 208 200 179 177 181 175 170 171 168 160 152 151 148 144 145 141 139 133 120 112 101 92 87 87 82 78 76 77 70 62 58 70 49 85 92 63 45
183 189 196 197 200 205 214 219 245 194 187 179 181 184 186 179 161 155 158 156 157 146 150 149 143 134 116 107 91 81 78 75 68 59 59 56 51 52 57 78 100 43 55
188 195 207 212 212 213 220 215 229 253 210 193 184 178 201 224 178 168 168 176 170 165 171 174 174 162 151 121 109 87 43 39 34 24 30 36 33 40 33 42 111 138 48
198 200 211 218 225 226 229 222 222 230 227 219 211 187 196 211 213 190 188 192 182 182 193 200 206 209 218 234 257 291 323 330 338 340 348 355 1 14 11 22 77 171 218
209 213 217 222 226 230 236 239 233 222 226 231 228 224 213 219 208 191 196 201 199 201 207 214 222 227 238 256 265 275 287 299 307 310 310 316 324 341 342 349 39 185 202
222 223 225 232 235 231 234 239 242 245 241 234 227 240 231 230 226 210 209 211 214 216 220 223 230 237 243 253 265 275 282 288 292 297 295 300 303 310 316 308 266 210 234
244 238 239 239 238 240 239 239 242 247 249 248 246 233 237 242 242 236 233 231 231 233 235 238 242 247 249 254 260 266 275 281 282 283 287 291 293 293 295 292 273 237 236
259 256 249 246 246 247 241 243 245 245 248 252 256 255 246 239 240 243 246 243 241 244 246 248 250 251 253 256 260 264 270 275 277 279 281 282 284 286 287 281 273 242 224
267 262 259 256 254 253 254 253 248 247 248 249 251 254 257 255 249 246 247 249 248 250 253 254 253 254 256 257 258 261 264 269 273 274 275 275 277 278 278 273 265 247 216
273 270 268 263 261 259 260 259 260 255 250 250 249 252 256 258 259 259 257 256 252 255 258 259 258 257 257 256 258 262 264 267 269 269 270 269 271 274 273 272 260 250 227
272 269 265 267 268 265 267 266 263 264 262 255 255 254 255 256 257 258 260 260 260 260 260 260 261 262 261 262 263 262 266 267 267 267 267 268 267 268 270 270 260 255 238
265 266 271 267 268 270 271 270 269 268 268 267 261 258 257 257 257 261 264 264 262 260 262 263 267 268 267 266 267 267 266 266 266 266 265 265 265 265 265 266 260 253 244
257 260 266 269 268 268 270 270 271 271 268 270 267 263 261 257 258 259 263 265 263 260 260 264 265 268 271 271 273 272 269 266 266 265 264 262 261 259 261 262 258 252 246
250 252 259 264 269 270 265 265 265 266 266 265 264 263 261 260 259 259 261 264 263 262 262 263 267 268 271 274 275 274 273 271 269 266 265 263 261 257 255 256 255 250 242
250 258 261 264 272 275 275 272 270 268 270 269 269 269 266 264 262 260 262 264 264 262 265 266 268 268 269 270 276 277 279 276 274 272 270 268 262 258 256 254 254 251 244
246 254 257 262 268 272 280 279 274 274 272 272 272 271 270 267 265 264 264 266 268 267 266 266 265 268 270 269 267 276 288 289 284 280 273 267 262 257 254 254 253 250 243
252 256 257 261 265 273 275 270 265 263 265 267 269 273 275 274 273 271 269 268 268 269 268 270 269 266 269 274 269 258 262 270 287 289 277 268 263 261 256 253 251 250 243
254 258 262 265 269 268 264 261 260 264 266 270 275 275 277 277 276 274 272 271 270 271 271 271 271 270 268 265 269 266 260 260 262 286 282 272 262 262 262 254 251 253 243
259 260 263 263 263 266 262 259 261 261 265 269 270 271 272 273 276 277 278 276 274 273 276 276 273 272 270 268 266 267 269 265 262 258 270 274 275 269 262 258 261 258 247
265 265 265 266 267 257 256 259 261 264 265 266 268 272 275 278 279 280 280 280 280 279 279 280 280 276 274 272 269 266 265 261 261 262 259 271 275 278 275 266 262 259 250
Wind_Speed_850mb
27 25 26 28 27 25 23 19 15 16 18 24 27 26 23 24 23 17 14 15 19 31 33 33 33 31 29 31 30 28 24 25 28 26 30 30 31 28 28 25 24 29 31
25 27 25 27 26 26 22 15 13 14 18 20 22 22 20 21 23 20 13 14 25 31 34 32 32 26 27 29 28 27 26 30 31 35 36 33 32 25 25 23 25 24 28
24 27 23 25 28 24 16 12 10 13 15 19 18 19 21 23 26 24 24 15 29 28 28 26 25 26 21 25 25 28 31 35 37 33 32 34 28 21 22 23 28 30 31
25 25 21 25 30 22 14 9 10 13 15 22 17 21 23 24 27 27 26 24 25 27 25 23 22 25 24 23 23 25 29 32 31 28 28 25 23 16 17 20 26 25 24
28 26 22 23 24 18 15 12 13 15 19 26 16 21 24 22 24 24 25 24 27 25 21 21 20 21 22 21 21 22 25 25 23 21 20 20 19 15 17 19 19 17 17
26 25 24 23 18 16 13 11 10 14 21 25 20 13 20 19 21 23 23 22 23 24 21 17 16 16 19 19 18 18 19 19 17 18 18 20 19 20 15 17 17 10 15
23 23 23 23 21 16 11 10 11 16 19 18 22 18 17 19 19 19 18 19 18 18 17 14 14 12 14 14 13 12 14 15 14 12 14 16 18 15 12 12 13 7 10
19 20 22 24 22 19 14 9 7 13 19 17 17 20 16 17 19 19 17 16 14 14 14 13 12 9 9 10 8 6 7 8 9 9 11 12 13 12 10 9 6 2 8
19 21 20 22 24 24 18 13 9 8 17 24 19 22 19 12 16 19 17 15 14 12 12 11 10 7 5 4 4 2 3 4 4 6 7 8 8 8 8 8 5 2 2
19 19 20 23 24 26 23 18 13 10 14 21 23 20 24 20 14 15 18 16 14 14 13 11 9 8 5 4 3 4 4 5 6 7 7 6 7 7 7 7 3 5 2
26 21 21 22 26 27 26 23 21 18 16 18 22 22 26 20 18 18 20 18 16 16 16 15 14 12 11 10 9 9 9 9 8 9 10 9 9 8 7 5 2 6 7
25 25 23 22 23 28 29 28 26 24 21 20 21 23 23 21 20 21 19 19 19 20 20 20 19 18 15 15 15 15 15 14 13 13 14 14 13 11 10 8 4 7 12
15 21 23 24 24 27 30 31 32 30 29 26 24 24 24 24 23 23 23 22 21 22 23 23 22 21 21 20 20 20 21 21 19 18 17 18 17 15 13 12 9 9 13
20 19 21 24 27 28 30 34 35 37 35 33 30 29 30 30 29 28 27 25 26 25 26 26 26 27 26 26 26 26 26 26 25 23 22 21 21 20 17 17 15 13 13
25 25 27 28 29 30 33 34 38 41 41 38 38 36 35 34 33 33 33 32 30 31 29 30 31 31 31 32 32 33 32 31 30 28 27 25 25 24 21 21 20 18 19
23 24 27 32 33 34 36 37 38 40 41 44 44 43 42 39 37 37 36 37 36 34 33 34 35 36 37 39 38 38 36 36 34 33 32 29 29 28 26 24 24 23 25
29 28 31 34 35 38 40 41 44 42 41 42 44 46 48 49 45 42 40 42 41 39 40 41 42 42 43 43 44 43 43 41 41 38 37 35 33 32 30 28 28 27 26
41 37 35 36 39 41 42 43 47 49 48 45 44 45 47 49 51 50 48 46 43 45 46 48 45 47 48 47 47 46 47 48 47 46 44 42 39 38 36 34 32 30 31
42 43 40 40 41 42 43 45 47 49 53 51 51 50 50 51 50 51 52 51 46 49 51 51 52 52 52 52 53 53 52 55 53 53 52 50 45 43 42 41 39 36 34
29 32 33 33 31 33 43 48 49 50 52 54 56 56 55 55 56 55 55 54 52 54 55 54 57 55 58 56 55 60 60 60 60 61 60 57 55 51 47 45 46 45 40
47 41 36 38 34 35 36 42 49 52 50 53 55 57 58 59 60 61 62 61 61 60 59 56 57 62 63 59 58 66 68 65 66 64 61 60 59 56 55 50 52 50 48
54 51 46 42 44 42 46 49 51 54 54 53 54 55 56 61 64 65 66 67 68 67 65 65 63 66 68 66 61 60 61 63 58 48 48 54 57 59 61 59 56 52 53
52 51 52 50 46 50 56 59 61 62 61 59 60 56 56 57 58 61 64 67 71 73 72 70 70 69 71 73 69 56 27 25 36 35 28 31 31 38 49 57 59 58 57
44 41 41 47 56 60 56 58 63 66 66 61 59 57 57 57 58 58 59 63 67 73 76 75 75 76 74 75 79 78 77 75 49 47 41 35 40 40 43 46 50 55 61
42 47 50 48 48 49 54 55 53 57 60 57 63 65 63 61 61 60 58 59 61 64 66 72 76 80 83 82 83 83 83 80 80 85 74 76 78 72 63 60 58 56 62
45 46 46 47 46 44 47 47 50 52 54 57 58 61 60 59 57 58 57 59 59 62 63 65 69 75 76 83 85 87 87 74 68 75 80 91 91 90 81 72 68 66 64
Wind_Direction_850mb
160 154 154 154 158 147 142 133 121 127 142 148 150 154 150 142 139 143 135 113 131 111 109 102 94 93 95 90 86 89 96 107 107 103 99 92 81 82 79 77 72 75 73
162 159 158 162 158 150 148 142 134 136 148 150 155 164 168 165 157 155 152 133 113 115 108 105 98 85 93 88 83 86 82 84 99 97 92 86 77 74 77 69 66 69 75
163 162 160 162 159 152 153 156 158 156 157 147 159 155 161 149 155 154 163 155 122 120 117 109 98 96 95 84 81 81 81 81 81 81 85 77 75 70 64 61 69 76 84
162 160 159 160 161 158 163 175 184 174 151 134 144 153 138 139 137 142 141 139 126 125 123 108 90 88 104 80 85 89 84 83 85 83 77 82 73 62 58 61 82 99 86
164 168 165 165 170 173 170 177 186 172 148 146 160 144 147 143 142 143 141 134 133 133 133 112 97 92 90 81 84 90 90 86 85 85 82 72 71 64 61 59 89 97 65
170 173 171 174 181 187 185 179 177 169 161 162 169 166 147 152 148 148 145 143 137 138 137 125 106 94 91 85 83 87 84 82 81 81 73 63 60 63 51 68 85 82 55
176 181 181 186 190 196 208 200 179 177 181 175 170 171 168 160 152 151 148 144 145 141 139 133 120 112 101 92 87 87 82 78 76 77 70 62 58 70 49 85 92 63 45
183 189 196 197 200 205 214 219 245 194 187 179 181 184 186 179 161 155 158 156 157 146 150 149 143 134 116 107 91 81 78 75 68 59 59 56 51 52 57 78 100 43 55
188 195 207 212 212 213 220 215 229 253 210 193 184 178 201 224 178 168 168 176 170 165 171 174 174 162 151 121 109 87 43 39 34 24 30 36 33 40 33 42 111 138 48
198 200 211 218 225 226 229 222 222 230 227 219 211 187 196 211 213 190 188 192 182 182 193 200 206 209 218 234 257 291 323 330 338 340 348 355 1 14 11 22 77 171 218
209 213 217 222 226 230 236 239 233 222 226 231 228 224 213 219 208 191 196 201 199 201 207 214 222 227 238 256 265 275 287 299 307 310 310 316 324 341 342 349 39 185 202
222 223 225 232 235 231 234 239 242 245 241 234 227 240 231 230 226 210 209 211 214 216 220 223 230 237 243 253 265 275 282 288 292 297 295 300 303 310 316 308 266 210 234
244 238 239 239 238 240 239 239 242 247 249 248 246 233 237 242 242 236 233 231 231 233 235 238 242 247 249 254 260 266 275 281 282 283 287 291 293 293 295 292 273 237 236
259 256 249 246 246 247 241 243 245 245 248 252 256 255 246 239 240 243 246 243 241 244 246 248 250 251 253 256 260 264 270 275 277 279 281 282 284 286 287 281 273 242 224
267 262 259 256 254 253 254 253 248 247 248 249 251 254 257 255 249 246 247 249 248 250 253 254 253 254 256 257 258 261 264 269 273 274 275 275 277 278 278 273 265 247 216
273 270 268 263 261 259 260 259 260 255 250 250 249 252 256 258 259 259 257 256 252 255 258 259 258 257 257 256 258 262 264 267 269 269 270 269 271 274 273 272 260 250 227
272 269 265 267 268 265 267 266 263 264 262 255 255 254 255 256 257 258 260 260 260 260 260 260 261 262 261 262 263 262 266 267 267 267 267 268 267 268 270 270 260 255 238
265 266 271 267 268 270 271 270 269 268 268 267 261 258 257 257 257 261 264 264 262 260 262 263 267 268 267 266 267 267 266 266 266 266 265 265 265 265 265 266 260 253 244
257 260 266 269 268 268 270 270 271 271 268 270 267 263 261 257 258 259 263 265 263 260 260 264 265 268 271 271 273 272 269 266 266 265 264 262 261 259 261 262 258 252 246
250 252 259 264 269 270 265 265 265 266 266 265 264 263 261 260 259 259 261 264 263 262 262 263 267 268 271 274 275 274 273 271 269 266 265 263 261 257 255 256 255 250 242
250 258 261 264 272 275 275 272 270 268 270 269 269 269 266 264 262 260 262 264 264 262 265 266 268 268 269 270 276 277 279 276 274 272 270 268 262 258 256 254 254 251 244
246 254 257 262 268 272 280 279 274 274 272 272 272 271 270 267 265 264 264 266 268 267 266 266 265 268 270 269 267 276 288 289 284 280 273 267 262 257 254 254 253 250 243
252 256 257 261 265 273 275 270 265 263 265 267 269 273 275 274 273 271 269 268 268 269 268 270 269 266 269 274 269 258 262 270 287 289 277 268 263 261 256 253 251 250 243
254 258 262 265 269 268 264 261 260 264 266 270 275 275 277 277 276 274 272 271 270 271 271 271 271 270 268 265 269 266 260 260 262 286 282 272 262 262 262 254 251 253 243
259 260 263 263 263 266 262 259 261 261 265 269 270 271 272 273 276 277 278 276 274 273 276 276 273 272 270 268 266 267 269 265 262 258 270 274 275 269 262 258 261 258 247
265 265 265 266 267 257 256 259 261 264 265 266 268 272 275 278 279 280 280 280 280 279 279 280 280 276 274 272 269 266 265 261 261 262 259 271 275 278 275 266 262 259 250